FW3731 Weather Reports


Display with metric or nautical units.
time (UTC)temp
F
wind
direction
speed
MPH
gust
MPH
rain 1hr
in
rain 24hr
in
rain mn
in
humidity
%
barometer
mb
20260504081544 67 211 1.0 8.0 0.00 0.00 0.00 60 1007.6
20260504050020 68 229 2.0 10.0 0.00 0.00 0.00 58 1008.7
20260504044522 68 136 1.0 8.0 0.00 0.00 0.00 58 1008.7
20260504043016 68 236 2.0 6.0 0.00 0.00 0.00 59 1008.9
20260504041534 68 246 1.0 6.0 0.00 0.00 0.00 59 1009.2
20260504040020 68 176 1.0 5.0 0.00 0.00 0.00 59 1009.3
20260504034511 68 189 1.0 4.0 0.00 0.00 0.00 58 1009.5
20260504033010 69 224 1.0 3.0 0.00 0.00 0.00 56 1009.7
20260504031511 69 182 1.0 5.0 0.00 0.00 0.00 55 1009.8
20260504030009 70 216 1.0 5.0 0.00 0.00 0.00 54 1009.9
20260504024509 69 237 1.0 8.0 0.00 0.00 0.00 53 1010.0
20260504023009 69 172 0.0 4.0 0.00 0.00 0.00 54 1009.7
20260504021508 69 169 0.0 2.0 0.00 0.00 0.00 54 1009.7
20260504020009 69 160 0.0 3.0 0.00 0.00 0.00 56 1009.8
20260504014506 70 194 0.0 2.0 0.00 0.00 0.00 52 1009.8
20260504013006 71 206 0.0 1.0 0.00 0.00 0.00 49 1009.8
20260504011506 73 249 0.0 1.0 0.00 0.00 0.00 47 1009.8
20260504010005 74 247 0.0 5.0 0.00 0.00 0.00 45 1009.8
20260504004510 75 256 0.0 3.0 0.00 0.00 0.00 43 1009.8
20260504003004 76 144 0.0 5.0 0.00 0.00 0.00 42 1009.8
20260504001508 77 153 2.0 8.0 0.00 0.00 0.00 40 1009.8
20260504000001 78 209 1.0 8.0 0.00 0.00 0.00 40 1009.8
20260503234502 79 232 1.0 6.0 0.00 0.00 0.00 38 1009.8
20260503233100 80 227 2.0 8.0 0.00 0.00 0.00 37 1009.8
20260503231559 81 227 2.0 8.0 0.00 0.00 0.00 37 1009.8
20260503230104 81 231 2.0 14.0 0.00 0.00 0.00 37 1009.9
20260503224604 81 226 2.0 14.0 0.00 0.00 0.00 37 1009.8
20260503223056 82 214 1.0 12.0 0.00 0.00 0.00 37 1010.0
20260503221603 82 270 6.0 15.0 0.00 0.00 0.00 37 1009.9
20260503220052 82 205 4.0 16.0 0.00 0.00 0.00 36 1010.1
20260503214550 82 217 3.0 11.0 0.00 0.00 0.00 38 1010.2
20260503213047 81 229 4.0 12.0 0.00 0.00 0.00 40 1010.3
20260503211544 81 141 9.0 19.0 0.00 0.00 0.00 39 1010.3
20260503210041 81 238 5.0 15.0 0.00 0.00 0.00 40 1010.6
20260503204538 81 223 4.0 13.0 0.00 0.00 0.00 40 1010.9
20260503203038 80 72 5.0 17.0 0.00 0.00 0.00 40 1011.2
20260503201534 80 203 9.0 16.0 0.00 0.00 0.00 40 1011.5
20260503200030 79 266 4.0 16.0 0.00 0.00 0.00 43 1012.0
20260503194526 79 252 5.0 20.0 0.00 0.00 0.00 45 1012.2
20260503193038 79 233 5.0 18.0 0.00 0.00 0.00 44 1012.5
20260503191547 78 195 6.0 17.0 0.00 0.00 0.00 45 1012.8
20260503190031 78 197 5.0 10.0 0.00 0.00 0.00 45 1013.3
20260503184515 77 260 5.0 12.0 0.00 0.00 0.00 45 1013.6
20260503183013 77 243 2.0 11.0 0.00 0.00 0.00 46 1013.7
20260503181510 76 211 8.0 19.0 0.00 0.00 0.00 46 1014.2
20260503180008 75 159 5.0 12.0 0.00 0.00 0.00 46 1014.7
20260503174502 75 185 5.0 15.0 0.00 0.00 0.00 46 1014.9
20260503173105 74 167 4.0 11.0 0.00 0.00 0.00 46 1015.2
20260503171556 73 209 5.0 14.0 0.00 0.00 0.00 47 1015.4
20260503170105 73 217 6.0 16.0 0.00 0.00 0.00 46 1015.7